| time (UTC) | temp F | wind direction | speed knots | gust knots | rain 1hr in | rain 24hr in | rain mn in | humidity % | barometer mb |
| 20260506143254 | 61 | 161 | 2.6 | 7.0 | 0.00 | 0.00 | 0.00 | 83 | 1006.5 |
| 20260506143054 | 61 | 174 | 2.6 | 7.0 | 0.00 | 0.00 | 0.00 | 83 | 1006.5 |
| 20260506142855 | 61 | 167 | 3.5 | 7.0 | 0.00 | 0.00 | 0.00 | 83 | 1006.5 |
| 20260506142655 | 61 | 150 | 3.5 | 7.0 | 0.00 | 0.00 | 0.00 | 84 | 1006.6 |
| 20260506142455 | 61 | 91 | 3.5 | 7.8 | 0.00 | 0.00 | 0.00 | 83 | 1006.7 |
| 20260506142254 | 61 | 187 | 3.5 | 7.8 | 0.00 | 0.00 | 0.00 | 83 | 1006.7 |
| 20260506142141 | 61 | 140 | 3.5 | 7.8 | 0.00 | 0.00 | 0.00 | 83 | 1006.7 |
| 20260506141855 | 61 | 133 | 3.5 | 7.8 | 0.00 | 0.00 | 0.00 | 83 | 1006.8 |
| 20260506141655 | 61 | 184 | 4.3 | 7.8 | 0.00 | 0.00 | 0.00 | 83 | 1006.8 |
| 20260506141454 | 61 | 180 | 3.5 | 7.8 | 0.00 | 0.00 | 0.00 | 83 | 1006.8 |
| 20260506141355 | 61 | 167 | 3.5 | 7.8 | 0.00 | 0.00 | 0.00 | 84 | 1006.9 |
| 20260506141303 | 61 | 167 | 3.5 | 7.8 | 0.00 | 0.00 | 0.00 | 84 | 1006.9 |
| 20260506141055 | 61 | 200 | 3.5 | 7.8 | 0.00 | 0.00 | 0.00 | 83 | 1006.9 |
| 20260506140855 | 61 | 177 | 3.5 | 7.8 | 0.00 | 0.00 | 0.00 | 82 | 1006.8 |
| 20260506140655 | 61 | 177 | 3.5 | 7.8 | 0.00 | 0.00 | 0.00 | 83 | 1006.9 |
| 20260506140455 | 61 | 46 | 3.5 | 7.8 | 0.00 | 0.00 | 0.00 | 83 | 1006.9 |
| 20260506140255 | 61 | 178 | 3.5 | 7.8 | 0.00 | 0.00 | 0.00 | 82 | 1006.9 |
| 20260506140056 | 61 | 176 | 3.5 | 8.7 | 0.00 | 0.00 | 0.00 | 82 | 1006.9 |
| 20260506135855 | 61 | 179 | 3.5 | 8.7 | 0.00 | 0.00 | 0.00 | 82 | 1006.9 |
| 20260506135655 | 61 | 190 | 3.5 | 8.7 | 0.00 | 0.00 | 0.00 | 83 | 1006.9 |
| 20260506135455 | 61 | 177 | 3.5 | 8.7 | 0.00 | 0.00 | 0.00 | 83 | 1007.0 |
| 20260506135255 | 62 | 162 | 3.5 | 8.7 | 0.00 | 0.00 | 0.00 | 82 | 1007.0 |
| 20260506135056 | 62 | 183 | 2.6 | 8.7 | 0.00 | 0.00 | 0.00 | 82 | 1007.1 |
| 20260506134855 | 62 | 150 | 2.6 | 6.1 | 0.00 | 0.00 | 0.00 | 81 | 1007.1 |
| 20260506134655 | 62 | 181 | 2.6 | 7.0 | 0.00 | 0.00 | 0.00 | 82 | 1007.2 |
| 20260506134455 | 62 | 210 | 2.6 | 7.0 | 0.00 | 0.00 | 0.00 | 82 | 1007.2 |
| 20260506134252 | 61 | 210 | 3.5 | 7.0 | 0.00 | 0.00 | 0.00 | 82 | 1007.2 |
| 20260506133853 | 61 | 122 | 2.6 | 7.0 | 0.00 | 0.00 | 0.00 | 83 | 1007.1 |
| 20260506133653 | 61 | 174 | 3.5 | 7.0 | 0.00 | 0.00 | 0.00 | 83 | 1007.2 |
| 20260506133452 | 61 | 185 | 2.6 | 7.0 | 0.00 | 0.00 | 0.00 | 83 | 1007.1 |
| 20260506133252 | 61 | 176 | 3.5 | 7.0 | 0.00 | 0.00 | 0.00 | 82 | 1007.2 |
| 20260506133053 | 61 | 189 | 2.6 | 7.0 | 0.00 | 0.00 | 0.00 | 83 | 1007.1 |
| 20260506132849 | 61 | 166 | 3.5 | 7.0 | 0.00 | 0.00 | 0.00 | 83 | 1007.1 |
| 20260506132649 | 61 | 168 | 3.5 | 7.0 | 0.00 | 0.00 | 0.00 | 82 | 1007.1 |
| 20260506132450 | 61 | 200 | 3.5 | 7.0 | 0.00 | 0.00 | 0.00 | 83 | 1007.1 |
| 20260506132250 | 61 | 146 | 2.6 | 6.1 | 0.00 | 0.00 | 0.00 | 82 | 1007.0 |
| 20260506132049 | 61 | 194 | 2.6 | 7.0 | 0.00 | 0.00 | 0.00 | 82 | 1007.0 |
| 20260506131850 | 61 | 168 | 3.5 | 7.8 | 0.00 | 0.00 | 0.00 | 82 | 1007.0 |
| 20260506131651 | 61 | 160 | 3.5 | 7.8 | 0.00 | 0.00 | 0.00 | 83 | 1006.9 |
| 20260506131449 | 60 | 148 | 3.5 | 7.8 | 0.00 | 0.00 | 0.00 | 84 | 1006.9 |
| 20260506131250 | 60 | 172 | 4.3 | 7.8 | 0.00 | 0.00 | 0.00 | 84 | 1006.9 |
| 20260506131050 | 60 | 162 | 4.3 | 7.8 | 0.00 | 0.00 | 0.00 | 84 | 1006.8 |
| 20260506130850 | 60 | 171 | 4.3 | 7.8 | 0.00 | 0.00 | 0.00 | 84 | 1006.8 |
| 20260506130650 | 60 | 162 | 3.5 | 7.8 | 0.00 | 0.00 | 0.00 | 85 | 1006.8 |
| 20260506130450 | 60 | 164 | 3.5 | 7.8 | 0.00 | 0.00 | 0.00 | 84 | 1006.8 |
| 20260506130250 | 60 | 183 | 3.5 | 7.8 | 0.00 | 0.00 | 0.00 | 85 | 1006.8 |
| 20260506130051 | 60 | 187 | 3.5 | 7.8 | 0.00 | 0.00 | 0.00 | 85 | 1006.8 |
| 20260506125850 | 60 | 175 | 3.5 | 7.8 | 0.00 | 0.00 | 0.00 | 85 | 1006.8 |
| 20260506125650 | 60 | 171 | 3.5 | 7.8 | 0.00 | 0.00 | 0.00 | 85 | 1006.8 |
| 20260506125450 | 60 | 178 | 3.5 | 7.8 | 0.00 | 0.00 | 0.00 | 86 | 1006.8 |
| 20260506125251 | 60 | 245 | 4.3 | 7.8 | 0.00 | 0.00 | 0.00 | 85 | 1006.8 |
| 20260506125050 | 60 | 174 | 4.3 | 7.8 | 0.00 | 0.00 | 0.00 | 85 | 1006.8 |
| 20260506124850 | 60 | 174 | 4.3 | 7.8 | 0.00 | 0.00 | 0.00 | 85 | 1006.9 |
| 20260506124650 | 60 | 181 | 4.3 | 7.8 | 0.00 | 0.00 | 0.00 | 86 | 1006.9 |
| 20260506124450 | 60 | 182 | 3.5 | 7.8 | 0.00 | 0.00 | 0.00 | 85 | 1006.9 |
| 20260506124251 | 60 | 158 | 3.5 | 7.0 | 0.00 | 0.00 | 0.00 | 84 | 1006.9 |
| 20260506124050 | 60 | 179 | 3.5 | 8.7 | 0.00 | 0.00 | 0.00 | 84 | 1006.9 |
| 20260506123850 | 60 | 167 | 3.5 | 8.7 | 0.00 | 0.00 | 0.00 | 84 | 1006.9 |
| 20260506123651 | 60 | 172 | 3.5 | 8.7 | 0.00 | 0.00 | 0.00 | 85 | 1006.8 |
| 20260506123450 | 60 | 263 | 3.5 | 8.7 | 0.00 | 0.00 | 0.00 | 85 | 1006.9 |
| 20260506123251 | 60 | 187 | 3.5 | 8.7 | 0.00 | 0.00 | 0.00 | 85 | 1007.0 |
| 20260506123137 | 60 | 181 | 3.5 | 8.7 | 0.00 | 0.00 | 0.00 | 85 | 1007.1 |
| 20260506122850 | 60 | 190 | 3.5 | 6.1 | 0.00 | 0.00 | 0.00 | 85 | 1007.1 |
| 20260506122650 | 60 | 180 | 3.5 | 6.1 | 0.00 | 0.00 | 0.00 | 85 | 1007.1 |
| 20260506122451 | 60 | 201 | 3.5 | 6.1 | 0.00 | 0.00 | 0.00 | 85 | 1007.1 |
| 20260506122250 | 60 | 174 | 3.5 | 6.1 | 0.00 | 0.00 | 0.00 | 85 | 1007.2 |
| 20260506122137 | 60 | 185 | 3.5 | 6.1 | 0.00 | 0.00 | 0.00 | 86 | 1007.2 |
| 20260506121848 | 60 | 142 | 3.5 | 6.1 | 0.00 | 0.00 | 0.00 | 86 | 1007.2 |
| 20260506121647 | 59 | 188 | 3.5 | 6.1 | 0.00 | 0.00 | 0.00 | 86 | 1007.2 |
| 20260506121445 | 59 | 168 | 3.5 | 7.0 | 0.00 | 0.00 | 0.00 | 86 | 1007.2 |
| 20260506121245 | 59 | 172 | 3.5 | 10.4 | 0.00 | 0.00 | 0.00 | 87 | 1007.2 |
| 20260506121044 | 59 | 153 | 4.3 | 10.4 | 0.00 | 0.00 | 0.00 | 87 | 1007.2 |
| 20260506120845 | 59 | 152 | 4.3 | 10.4 | 0.00 | 0.00 | 0.00 | 87 | 1007.2 |
| 20260506120645 | 59 | 266 | 4.3 | 10.4 | 0.00 | 0.00 | 0.00 | 88 | 1007.3 |
| 20260506120445 | 59 | 188 | 5.2 | 10.4 | 0.00 | 0.00 | 0.00 | 87 | 1007.3 |
| 20260506120245 | 59 | 195 | 4.3 | 8.7 | 0.00 | 0.00 | 0.00 | 87 | 1007.2 |
| 20260506120045 | 59 | 207 | 5.2 | 8.7 | 0.00 | 0.00 | 0.00 | 87 | 1007.2 |
| 20260506115846 | 59 | 182 | 4.3 | 8.7 | 0.00 | 0.00 | 0.00 | 87 | 1007.2 |
| 20260506115645 | 59 | 175 | 4.3 | 8.7 | 0.00 | 0.00 | 0.00 | 87 | 1007.2 |
| 20260506115445 | 59 | 74 | 4.3 | 8.7 | 0.00 | 0.00 | 0.00 | 87 | 1007.2 |
| 20260506115245 | 59 | 156 | 4.3 | 8.7 | 0.00 | 0.00 | 0.00 | 87 | 1007.1 |
| 20260506115045 | 59 | 183 | 4.3 | 9.6 | 0.00 | 0.00 | 0.00 | 88 | 1007.2 |
| 20260506114845 | 59 | 171 | 4.3 | 9.6 | 0.00 | 0.00 | 0.00 | 88 | 1007.2 |
| 20260506114646 | 58 | 189 | 4.3 | 9.6 | 0.00 | 0.00 | 0.00 | 88 | 1007.2 |
| 20260506114445 | 58 | 160 | 4.3 | 9.6 | 0.00 | 0.00 | 0.00 | 89 | 1007.2 |
| 20260506114244 | 58 | 190 | 4.3 | 9.6 | 0.00 | 0.00 | 0.00 | 89 | 1007.2 |
| 20260506114045 | 58 | 177 | 4.3 | 9.6 | 0.00 | 0.00 | 0.00 | 89 | 1007.2 |
| 20260506113845 | 58 | 176 | 4.3 | 7.8 | 0.00 | 0.00 | 0.00 | 89 | 1007.2 |
| 20260506113645 | 58 | 325 | 4.3 | 7.8 | 0.00 | 0.00 | 0.00 | 90 | 1007.1 |
| 20260506113446 | 58 | 156 | 3.5 | 7.8 | 0.00 | 0.00 | 0.00 | 90 | 1007.1 |
| 20260506113245 | 58 | 172 | 3.5 | 7.8 | 0.00 | 0.00 | 0.00 | 90 | 1007.1 |
| 20260506113046 | 58 | 155 | 3.5 | 7.8 | 0.00 | 0.00 | 0.00 | 90 | 1007.1 |
| 20260506112845 | 58 | 188 | 3.5 | 7.8 | 0.00 | 0.00 | 0.00 | 91 | 1007.0 |
| 20260506112645 | 57 | 123 | 3.5 | 7.8 | 0.00 | 0.00 | 0.00 | 91 | 1007.0 |
| 20260506112445 | 57 | 152 | 4.3 | 7.8 | 0.00 | 0.00 | 0.00 | 91 | 1007.0 |
| 20260506112246 | 57 | 177 | 3.5 | 8.7 | 0.00 | 0.00 | 0.00 | 91 | 1006.9 |
| 20260506112045 | 57 | 198 | 4.3 | 8.7 | 0.00 | 0.00 | 0.00 | 92 | 1006.9 |
| 20260506111845 | 57 | 182 | 4.3 | 8.7 | 0.00 | 0.00 | 0.00 | 92 | 1007.0 |
| 20260506111645 | 57 | 186 | 4.3 | 8.7 | 0.00 | 0.00 | 0.00 | 92 | 1007.0 |
| 20260506111446 | 57 | 175 | 5.2 | 9.6 | 0.00 | 0.00 | 0.00 | 92 | 1007.0 |
| 20260506111245 | 57 | 183 | 5.2 | 9.6 | 0.00 | 0.00 | 0.00 | 92 | 1007.1 |
| 20260506111132 | 57 | 162 | 5.2 | 9.6 | 0.00 | 0.00 | 0.00 | 93 | 1007.1 |
| 20260506110842 | 57 | 191 | 5.2 | 9.6 | 0.00 | 0.00 | 0.00 | 93 | 1007.2 |
| 20260506110642 | 56 | 175 | 4.3 | 9.6 | 0.00 | 0.00 | 0.00 | 93 | 1007.1 |
| 20260506110441 | 56 | 201 | 4.3 | 8.7 | 0.00 | 0.00 | 0.00 | 93 | 1007.2 |
| 20260506110240 | 56 | 178 | 4.3 | 8.7 | 0.00 | 0.00 | 0.00 | 93 | 1007.2 |
| 20260506110040 | 56 | 180 | 3.5 | 8.7 | 0.00 | 0.00 | 0.00 | 93 | 1007.2 |
| 20260506105839 | 56 | 169 | 3.5 | 8.7 | 0.00 | 0.00 | 0.00 | 94 | 1007.2 |
| 20260506105640 | 56 | 217 | 3.5 | 8.7 | 0.00 | 0.00 | 0.00 | 94 | 1007.1 |
| 20260506105441 | 56 | 174 | 3.5 | 8.7 | 0.00 | 0.00 | 0.00 | 94 | 1007.1 |
| 20260506105240 | 56 | 153 | 3.5 | 8.7 | 0.00 | 0.00 | 0.00 | 94 | 1007.1 |
| 20260506105040 | 56 | 188 | 4.3 | 9.6 | 0.00 | 0.00 | 0.00 | 94 | 1007.1 |
| 20260506104840 | 56 | 151 | 3.5 | 9.6 | 0.00 | 0.00 | 0.00 | 94 | 1007.1 |
| 20260506104640 | 56 | 174 | 4.3 | 9.6 | 0.00 | 0.00 | 0.00 | 94 | 1007.0 |
| 20260506104441 | 56 | 175 | 4.3 | 9.6 | 0.00 | 0.00 | 0.00 | 94 | 1007.0 |
| 20260506104240 | 56 | 151 | 3.5 | 9.6 | 0.00 | 0.00 | 0.00 | 94 | 1007.0 |
| 20260506104037 | 56 | 143 | 3.5 | 7.8 | 0.00 | 0.00 | 0.00 | 94 | 1006.9 |
| 20260506103837 | 56 | 172 | 3.5 | 7.8 | 0.00 | 0.00 | 0.00 | 94 | 1007.0 |
| 20260506103637 | 56 | 184 | 3.5 | 7.8 | 0.00 | 0.00 | 0.00 | 94 | 1007.0 |
| 20260506103437 | 56 | 169 | 3.5 | 8.7 | 0.00 | 0.00 | 0.00 | 94 | 1007.0 |
| 20260506103237 | 56 | 166 | 3.5 | 8.7 | 0.00 | 0.00 | 0.00 | 94 | 1007.0 |
| 20260506103129 | 56 | 175 | 3.5 | 8.7 | 0.00 | 0.00 | 0.00 | 94 | 1007.0 |
| 20260506102837 | 56 | 187 | 3.5 | 8.7 | 0.00 | 0.00 | 0.00 | 94 | 1006.9 |
| 20260506102637 | 56 | 186 | 3.5 | 8.7 | 0.00 | 0.00 | 0.00 | 94 | 1007.0 |
| 20260506102437 | 56 | 186 | 3.5 | 7.8 | 0.00 | 0.00 | 0.00 | 94 | 1007.0 |
| 20260506102238 | 56 | 175 | 3.5 | 7.8 | 0.00 | 0.00 | 0.00 | 94 | 1007.0 |
| 20260506102037 | 56 | 156 | 3.5 | 7.8 | 0.00 | 0.00 | 0.00 | 94 | 1007.0 |
| 20260506101838 | 56 | 167 | 2.6 | 7.8 | 0.00 | 0.00 | 0.00 | 94 | 1007.0 |
| 20260506101637 | 56 | 178 | 3.5 | 7.8 | 0.00 | 0.00 | 0.00 | 94 | 1006.9 |
| 20260506101437 | 56 | 161 | 3.5 | 7.8 | 0.00 | 0.00 | 0.00 | 94 | 1006.9 |
| 20260506101237 | 56 | 131 | 3.5 | 6.1 | 0.00 | 0.00 | 0.00 | 94 | 1006.9 |
| 20260506101038 | 56 | 167 | 3.5 | 6.1 | 0.00 | 0.00 | 0.00 | 94 | 1006.9 |
| 20260506100838 | 56 | 200 | 3.5 | 7.8 | 0.00 | 0.00 | 0.00 | 94 | 1006.9 |
| 20260506100637 | 56 | 167 | 3.5 | 8.7 | 0.00 | 0.00 | 0.00 | 94 | 1006.9 |
| 20260506100438 | 56 | 142 | 3.5 | 8.7 | 0.00 | 0.00 | 0.00 | 94 | 1007.0 |
| 20260506100238 | 56 | 186 | 3.5 | 8.7 | 0.00 | 0.00 | 0.00 | 94 | 1006.9 |
| 20260506100038 | 56 | 179 | 3.5 | 8.7 | 0.00 | 0.00 | 0.00 | 94 | 1007.0 |
| 20260506095838 | 56 | 170 | 3.5 | 8.7 | 0.00 | 0.00 | 0.00 | 94 | 1006.9 |
| 20260506095638 | 56 | 184 | 3.5 | 7.8 | 0.00 | 0.00 | 0.00 | 94 | 1006.9 |
| 20260506095438 | 56 | 174 | 3.5 | 7.8 | 0.00 | 0.00 | 0.00 | 94 | 1006.9 |
| 20260506095238 | 56 | 165 | 3.5 | 7.8 | 0.00 | 0.00 | 0.00 | 94 | 1006.9 |
| 20260506095038 | 56 | 177 | 3.5 | 8.7 | 0.00 | 0.00 | 0.00 | 94 | 1006.9 |
| 20260506094835 | 56 | 183 | 3.5 | 8.7 | 0.00 | 0.00 | 0.00 | 94 | 1006.9 |
| 20260506094635 | 56 | 161 | 3.5 | 8.7 | 0.00 | 0.00 | 0.00 | 93 | 1006.9 |
| 20260506094435 | 56 | 174 | 4.3 | 8.7 | 0.00 | 0.00 | 0.00 | 93 | 1006.9 |
| 20260506094234 | 56 | 167 | 4.3 | 8.7 | 0.00 | 0.00 | 0.00 | 93 | 1006.8 |
| 20260506094034 | 56 | 189 | 4.3 | 8.7 | 0.00 | 0.00 | 0.00 | 93 | 1006.9 |
| 20260506093835 | 56 | 147 | 4.3 | 8.7 | 0.00 | 0.00 | 0.00 | 93 | 1006.8 |
| 20260506093635 | 56 | 178 | 3.5 | 8.7 | 0.00 | 0.00 | 0.00 | 93 | 1006.8 |
| 20260506093435 | 56 | 162 | 3.5 | 7.8 | 0.00 | 0.00 | 0.00 | 93 | 1006.8 |
| 20260506093235 | 56 | 169 | 3.5 | 7.0 | 0.00 | 0.00 | 0.00 | 93 | 1006.9 |
| 20260506093035 | 56 | 174 | 3.5 | 7.0 | 0.00 | 0.00 | 0.00 | 93 | 1006.9 |
| 20260506092835 | 56 | 156 | 2.6 | 7.0 | 0.00 | 0.00 | 0.00 | 93 | 1006.9 |
| 20260506092634 | 56 | 179 | 2.6 | 7.0 | 0.00 | 0.00 | 0.00 | 93 | 1006.9 |
| 20260506092436 | 56 | 139 | 2.6 | 7.0 | 0.00 | 0.00 | 0.00 | 93 | 1006.9 |
| 20260506092235 | 56 | 174 | 2.6 | 7.0 | 0.00 | 0.00 | 0.00 | 93 | 1006.8 |
| 20260506092035 | 56 | 166 | 2.6 | 7.0 | 0.00 | 0.00 | 0.00 | 93 | 1006.8 |
| 20260506091835 | 56 | 209 | 2.6 | 7.8 | 0.00 | 0.00 | 0.00 | 93 | 1006.9 |
| 20260506091634 | 56 | 202 | 3.5 | 9.6 | 0.00 | 0.00 | 0.00 | 93 | 1006.8 |
| 20260506091435 | 56 | 161 | 3.5 | 9.6 | 0.00 | 0.00 | 0.00 | 93 | 1006.8 |
| 20260506091235 | 56 | 167 | 3.5 | 9.6 | 0.00 | 0.00 | 0.00 | 93 | 1006.9 |
| 20260506091035 | 56 | 180 | 3.5 | 9.6 | 0.00 | 0.00 | 0.00 | 93 | 1006.9 |
| 20260506090836 | 56 | 176 | 3.5 | 9.6 | 0.00 | 0.00 | 0.00 | 93 | 1007.0 |
| 20260506090636 | 56 | 189 | 2.6 | 7.0 | 0.00 | 0.00 | 0.00 | 92 | 1007.0 |
| 20260506090435 | 56 | 170 | 2.6 | 7.0 | 0.00 | 0.00 | 0.00 | 92 | 1007.0 |
| 20260506090235 | 56 | 175 | 3.5 | 7.0 | 0.00 | 0.00 | 0.00 | 92 | 1007.0 |
| 20260506090122 | 56 | 183 | 3.5 | 9.6 | 0.00 | 0.00 | 0.00 | 92 | 1007.0 |
| 20260506085835 | 56 | 159 | 3.5 | 9.6 | 0.00 | 0.00 | 0.00 | 92 | 1007.0 |
| 20260506085636 | 56 | 180 | 3.5 | 9.6 | 0.00 | 0.00 | 0.00 | 92 | 1007.1 |
| 20260506085435 | 56 | 180 | 3.5 | 9.6 | 0.00 | 0.00 | 0.00 | 92 | 1007.1 |
| 20260506085236 | 56 | 151 | 3.5 | 9.6 | 0.00 | 0.00 | 0.00 | 92 | 1007.1 |
| 20260506085036 | 56 | 192 | 2.6 | 6.1 | 0.00 | 0.00 | 0.00 | 92 | 1007.1 |
| 20260506084835 | 56 | 174 | 2.6 | 6.1 | 0.00 | 0.00 | 0.00 | 92 | 1007.1 |
| 20260506084635 | 56 | 106 | 2.6 | 6.1 | 0.00 | 0.00 | 0.00 | 92 | 1007.1 |
| 20260506084435 | 56 | 173 | 2.6 | 7.8 | 0.00 | 0.00 | 0.00 | 92 | 1007.1 |
| 20260506084235 | 56 | 174 | 2.6 | 7.8 | 0.00 | 0.00 | 0.00 | 92 | 1007.1 |
| 20260506084119 | 56 | 140 | 2.6 | 7.8 | 0.00 | 0.00 | 0.00 | 92 | 1007.1 |
| 20260506083832 | 56 | 160 | 2.6 | 7.8 | 0.00 | 0.00 | 0.00 | 92 | 1007.2 |
| 20260506083632 | 56 | 174 | 2.6 | 7.8 | 0.00 | 0.00 | 0.00 | 92 | 1007.2 |
| 20260506083430 | 56 | 176 | 2.6 | 5.2 | 0.00 | 0.00 | 0.00 | 92 | 1007.2 |
| 20260506083230 | 56 | 148 | 2.6 | 6.1 | 0.00 | 0.00 | 0.00 | 92 | 1007.2 |
| 20260506083030 | 56 | 130 | 3.5 | 6.1 | 0.00 | 0.00 | 0.00 | 92 | 1007.2 |
| 20260506082829 | 56 | 182 | 3.5 | 6.1 | 0.00 | 0.00 | 0.00 | 92 | 1007.2 |
| 20260506082630 | 56 | 178 | 3.5 | 6.1 | 0.00 | 0.00 | 0.00 | 92 | 1007.3 |
| 20260506082430 | 56 | 175 | 3.5 | 6.1 | 0.00 | 0.00 | 0.00 | 92 | 1007.3 |
| 20260506082229 | 56 | 173 | 3.5 | 6.1 | 0.00 | 0.00 | 0.00 | 92 | 1007.2 |
| 20260506082030 | 56 | 157 | 3.5 | 5.2 | 0.00 | 0.00 | 0.00 | 92 | 1007.3 |
| 20260506081830 | 56 | 165 | 3.5 | 6.1 | 0.00 | 0.00 | 0.00 | 92 | 1007.2 |
| 20260506081630 | 56 | 185 | 3.5 | 6.1 | 0.00 | 0.00 | 0.00 | 92 | 1007.2 |
| 20260506081429 | 56 | 145 | 3.5 | 6.1 | 0.00 | 0.00 | 0.00 | 92 | 1007.2 |
| 20260506081231 | 56 | 191 | 2.6 | 6.1 | 0.00 | 0.00 | 0.00 | 92 | 1007.3 |
| 20260506081030 | 56 | 181 | 2.6 | 6.1 | 0.00 | 0.00 | 0.00 | 92 | 1007.3 |
| 20260506080830 | 56 | 174 | 2.6 | 6.1 | 0.00 | 0.00 | 0.00 | 92 | 1007.3 |
| 20260506080629 | 56 | 174 | 2.6 | 6.1 | 0.00 | 0.00 | 0.00 | 92 | 1007.3 |
| 20260506080430 | 56 | 180 | 2.6 | 6.1 | 0.00 | 0.00 | 0.00 | 92 | 1007.2 |
| 20260506080230 | 56 | 149 | 2.6 | 6.1 | 0.00 | 0.00 | 0.00 | 91 | 1007.2 |
| 20260506073431 | 56 | 148 | 3.5 | 7.8 | 0.00 | 0.00 | 0.00 | 91 | 1007.5 |
| 20260506073231 | 56 | 190 | 2.6 | 7.8 | 0.00 | 0.00 | 0.00 | 91 | 1007.5 |
| 20260506073031 | 56 | 166 | 3.5 | 9.6 | 0.00 | 0.00 | 0.00 | 91 | 1007.5 |
| 20260506072830 | 56 | 194 | 3.5 | 9.6 | 0.00 | 0.00 | 0.00 | 91 | 1007.5 |
| 20260506072628 | 56 | 36 | 4.3 | 9.6 | 0.00 | 0.00 | 0.00 | 91 | 1007.6 |
| 20260506072428 | 56 | 166 | 4.3 | 9.6 | 0.00 | 0.00 | 0.00 | 90 | 1007.6 |
| 20260506072224 | 56 | 168 | 4.3 | 9.6 | 0.00 | 0.00 | 0.00 | 90 | 1007.6 |
| 20260506072025 | 56 | 169 | 4.3 | 9.6 | 0.00 | 0.00 | 0.00 | 91 | 1007.5 |
| 20260506071825 | 56 | 177 | 4.3 | 8.7 | 0.00 | 0.00 | 0.00 | 91 | 1007.6 |
| 20260506071625 | 56 | 165 | 3.5 | 8.7 | 0.00 | 0.00 | 0.00 | 90 | 1007.6 |
| 20260506071424 | 56 | 196 | 3.5 | 8.7 | 0.00 | 0.00 | 0.00 | 91 | 1007.6 |
| 20260506071225 | 56 | 177 | 3.5 | 8.7 | 0.00 | 0.00 | 0.00 | 90 | 1007.6 |
| 20260506071025 | 56 | 185 | 3.5 | 8.7 | 0.00 | 0.00 | 0.00 | 90 | 1007.6 |
| 20260506070826 | 56 | 178 | 3.5 | 8.7 | 0.00 | 0.00 | 0.00 | 90 | 1007.5 |
| 20260506070626 | 56 | 212 | 3.5 | 8.7 | 0.00 | 0.00 | 0.00 | 90 | 1007.6 |
| 20260506070427 | 56 | 174 | 3.5 | 8.7 | 0.00 | 0.00 | 0.00 | 90 | 1007.6 |
| 20260506070227 | 56 | 164 | 4.3 | 9.6 | 0.00 | 0.00 | 0.00 | 90 | 1007.6 |
| 20260506062424 | 57 | 185 | 4.3 | 7.8 | 0.00 | 0.00 | 0.00 | 89 | 1007.4 |
| 20260506062224 | 57 | 194 | 4.3 | 7.8 | 0.00 | 0.00 | 0.00 | 89 | 1007.4 |
| 20260506062024 | 57 | 187 | 4.3 | 7.8 | 0.00 | 0.00 | 0.00 | 89 | 1007.4 |
| 20260506061824 | 57 | 188 | 4.3 | 7.8 | 0.00 | 0.00 | 0.00 | 89 | 1007.5 |
| 20260506061624 | 57 | 185 | 4.3 | 10.4 | 0.00 | 0.00 | 0.00 | 89 | 1007.5 |
| 20260506061424 | 57 | 181 | 4.3 | 10.4 | 0.00 | 0.00 | 0.00 | 89 | 1007.5 |
| 20260506061224 | 57 | 180 | 4.3 | 10.4 | 0.00 | 0.00 | 0.00 | 89 | 1007.5 |
| 20260506061021 | 57 | 184 | 4.3 | 10.4 | 0.00 | 0.00 | 0.00 | 88 | 1007.5 |
| 20260506060818 | 57 | 181 | 5.2 | 11.3 | 0.00 | 0.00 | 0.00 | 88 | 1007.4 |
| 20260506060619 | 57 | 176 | 4.3 | 11.3 | 0.00 | 0.00 | 0.00 | 88 | 1007.5 |
| 20260506060418 | 57 | 189 | 5.2 | 11.3 | 0.00 | 0.00 | 0.00 | 88 | 1007.4 |
| 20260506060218 | 57 | 172 | 5.2 | 11.3 | 0.00 | 0.00 | 0.00 | 88 | 1007.4 |
| 20260506060113 | 57 | 182 | 4.3 | 11.3 | 0.00 | 0.00 | 0.00 | 88 | 1007.4 |
| 20260506051411 | 58 | 157 | 3.5 | 7.8 | 0.00 | 0.00 | 0.00 | 85 | 1007.9 |
| 20260506051211 | 58 | 182 | 3.5 | 7.8 | 0.00 | 0.00 | 0.00 | 85 | 1007.8 |
| 20260506051011 | 58 | 186 | 4.3 | 7.8 | 0.00 | 0.00 | 0.00 | 85 | 1007.8 |
| 20260506050810 | 58 | 183 | 4.3 | 7.8 | 0.00 | 0.00 | 0.00 | 85 | 1007.8 |
| 20260506050611 | 58 | 179 | 4.3 | 8.7 | 0.00 | 0.00 | 0.00 | 85 | 1007.8 |
| 20260506050410 | 58 | 176 | 4.3 | 8.7 | 0.00 | 0.00 | 0.00 | 85 | 1007.8 |
| 20260506050210 | 58 | 193 | 4.3 | 8.7 | 0.00 | 0.00 | 0.00 | 85 | 1007.8 |
| 20260506045013 | 58 | 168 | 4.3 | 7.8 | 0.00 | 0.00 | 0.00 | 85 | 1007.8 |
| 20260506044811 | 58 | 128 | 4.3 | 8.7 | 0.00 | 0.00 | 0.00 | 84 | 1007.8 |
| 20260506044611 | 58 | 185 | 4.3 | 8.7 | 0.00 | 0.00 | 0.00 | 84 | 1007.8 |
| 20260506044411 | 58 | 180 | 4.3 | 8.7 | 0.00 | 0.00 | 0.00 | 84 | 1007.9 |
| 20260506044211 | 58 | 181 | 4.3 | 8.7 | 0.00 | 0.00 | 0.00 | 84 | 1007.9 |
| 20260506044012 | 58 | 181 | 4.3 | 8.7 | 0.00 | 0.00 | 0.00 | 84 | 1007.9 |
| 20260506043809 | 58 | 157 | 4.3 | 8.7 | 0.00 | 0.00 | 0.00 | 84 | 1007.9 |
| 20260506043608 | 58 | 163 | 4.3 | 8.7 | 0.00 | 0.00 | 0.00 | 84 | 1007.9 |
| 20260506043405 | 58 | 170 | 4.3 | 8.7 | 0.00 | 0.00 | 0.00 | 84 | 1007.8 |
| 20260506043205 | 58 | 207 | 3.5 | 9.6 | 0.00 | 0.00 | 0.00 | 84 | 1007.9 |
| 20260506043109 | 58 | 171 | 3.5 | 9.6 | 0.00 | 0.00 | 0.00 | 84 | 1007.8 |
| 20260506042806 | 58 | 176 | 4.3 | 9.6 | 0.00 | 0.00 | 0.00 | 84 | 1007.8 |
| 20260506042605 | 59 | 185 | 4.3 | 9.6 | 0.00 | 0.00 | 0.00 | 84 | 1007.8 |
| 20260506042405 | 59 | 180 | 4.3 | 9.6 | 0.00 | 0.00 | 0.00 | 84 | 1007.8 |
| 20260506042205 | 59 | 176 | 4.3 | 9.6 | 0.00 | 0.00 | 0.00 | 83 | 1007.8 |
| 20260506041805 | 59 | 198 | 4.3 | 9.6 | 0.00 | 0.00 | 0.00 | 83 | 1007.8 |
| 20260506041605 | 59 | 158 | 4.3 | 9.6 | 0.00 | 0.00 | 0.00 | 83 | 1007.8 |
| 20260506041405 | 59 | 195 | 4.3 | 9.6 | 0.00 | 0.00 | 0.00 | 83 | 1007.8 |
| 20260506041206 | 59 | 160 | 4.3 | 9.6 | 0.00 | 0.00 | 0.00 | 83 | 1007.9 |
| 20260506040805 | 59 | 177 | 5.2 | 8.7 | 0.00 | 0.00 | 0.00 | 82 | 1008.0 |
| 20260506040606 | 59 | 183 | 5.2 | 8.7 | 0.00 | 0.00 | 0.00 | 82 | 1008.0 |
| 20260506040406 | 59 | 171 | 4.3 | 8.7 | 0.00 | 0.00 | 0.00 | 82 | 1008.0 |
| 20260506040206 | 59 | 185 | 4.3 | 8.7 | 0.00 | 0.00 | 0.00 | 82 | 1008.0 |
| 20260506035806 | 59 | 153 | 5.2 | 10.4 | 0.00 | 0.00 | 0.00 | 82 | 1008.1 |
| 20260506035605 | 59 | 176 | 5.2 | 10.4 | 0.00 | 0.00 | 0.00 | 82 | 1008.0 |
| 20260506035405 | 60 | 190 | 5.2 | 10.4 | 0.00 | 0.00 | 0.00 | 82 | 1008.0 |
| 20260506035206 | 60 | 182 | 5.2 | 10.4 | 0.00 | 0.00 | 0.00 | 81 | 1008.0 |
| 20260506034805 | 60 | 208 | 4.3 | 8.7 | 0.00 | 0.00 | 0.00 | 81 | 1008.0 |
| 20260506034612 | 60 | 190 | 4.3 | 8.7 | 0.00 | 0.00 | 0.00 | 81 | 1007.9 |
| 20260506034406 | 60 | 163 | 4.3 | 8.7 | 0.00 | 0.00 | 0.00 | 81 | 1007.9 |
| 20260506034206 | 60 | 188 | 3.5 | 9.6 | 0.00 | 0.00 | 0.00 | 81 | 1007.9 |
| 20260506033806 | 60 | 180 | 4.3 | 9.6 | 0.00 | 0.00 | 0.00 | 81 | 1007.9 |
| 20260506033606 | 60 | 145 | 4.3 | 9.6 | 0.00 | 0.00 | 0.00 | 80 | 1007.8 |
| 20260506033406 | 61 | 177 | 4.3 | 9.6 | 0.00 | 0.00 | 0.00 | 80 | 1007.8 |
| 20260506033206 | 61 | 194 | 4.3 | 9.6 | 0.00 | 0.00 | 0.00 | 80 | 1007.8 |
| 20260506033008 | 61 | 151 | 4.3 | 9.6 | 0.00 | 0.00 | 0.00 | 80 | 1007.9 |
| 20260506032805 | 61 | 174 | 4.3 | 9.6 | 0.00 | 0.00 | 0.00 | 80 | 1007.9 |
| 20260506032601 | 61 | 146 | 4.3 | 9.6 | 0.00 | 0.00 | 0.00 | 80 | 1007.8 |
| 20260506032401 | 61 | 172 | 3.5 | 7.8 | 0.00 | 0.00 | 0.00 | 80 | 1007.8 |
| 20260506032159 | 61 | 273 | 3.5 | 7.8 | 0.00 | 0.00 | 0.00 | 79 | 1007.8 |
| 20260506031958 | 61 | 183 | 3.5 | 8.7 | 0.00 | 0.00 | 0.00 | 79 | 1007.8 |
| 20260506031759 | 61 | 173 | 4.3 | 8.7 | 0.00 | 0.00 | 0.00 | 79 | 1007.8 |
| 20260506031559 | 61 | 172 | 4.3 | 8.7 | 0.00 | 0.00 | 0.00 | 79 | 1007.8 |
| 20260506031359 | 61 | 187 | 4.3 | 8.7 | 0.00 | 0.00 | 0.00 | 79 | 1007.8 |
| 20260506031159 | 61 | 166 | 4.3 | 9.6 | 0.00 | 0.00 | 0.00 | 79 | 1007.8 |
| 20260506030958 | 61 | 181 | 4.3 | 9.6 | 0.00 | 0.00 | 0.00 | 79 | 1007.8 |
| 20260506030758 | 61 | 159 | 4.3 | 9.6 | 0.00 | 0.00 | 0.00 | 79 | 1007.8 |
| 20260506030559 | 61 | 178 | 5.2 | 10.4 | 0.00 | 0.00 | 0.00 | 79 | 1007.8 |
| 20260506030359 | 61 | 169 | 4.3 | 10.4 | 0.00 | 0.00 | 0.00 | 79 | 1007.8 |
| 20260506030159 | 61 | 178 | 4.3 | 10.4 | 0.00 | 0.00 | 0.00 | 79 | 1007.8 |
| 20260506025958 | 61 | 174 | 4.3 | 10.4 | 0.00 | 0.00 | 0.00 | 79 | 1007.8 |
| 20260506025759 | 61 | 169 | 4.3 | 10.4 | 0.00 | 0.00 | 0.00 | 79 | 1007.9 |
| 20260506025559 | 61 | 192 | 4.3 | 8.7 | 0.00 | 0.00 | 0.00 | 79 | 1007.8 |
| 20260506025359 | 61 | 127 | 4.3 | 8.7 | 0.00 | 0.00 | 0.00 | 79 | 1007.9 |
| 20260506025159 | 61 | 181 | 4.3 | 8.7 | 0.00 | 0.00 | 0.00 | 79 | 1007.9 |
| 20260506024959 | 61 | 163 | 3.5 | 8.7 | 0.00 | 0.00 | 0.00 | 79 | 1007.9 |
| 20260506024759 | 61 | 198 | 3.5 | 8.7 | 0.00 | 0.00 | 0.00 | 79 | 1007.8 |
| 20260506024559 | 61 | 191 | 3.5 | 10.4 | 0.00 | 0.00 | 0.00 | 79 | 1007.9 |
| 20260506024359 | 61 | 258 | 3.5 | 10.4 | 0.00 | 0.00 | 0.00 | 79 | 1007.9 |
| 20260506024159 | 61 | 168 | 4.3 | 10.4 | 0.00 | 0.00 | 0.00 | 78 | 1007.9 |
| 20260506023959 | 61 | 225 | 4.3 | 10.4 | 0.00 | 0.00 | 0.00 | 78 | 1007.9 |
| 20260506023800 | 62 | 181 | 4.3 | 10.4 | 0.00 | 0.00 | 0.00 | 78 | 1007.9 |
| 20260506023600 | 62 | 173 | 4.3 | 10.4 | 0.00 | 0.00 | 0.00 | 78 | 1007.9 |
| 20260506023359 | 62 | 210 | 4.3 | 8.7 | 0.00 | 0.00 | 0.00 | 77 | 1007.9 |
| 20260506023200 | 62 | 163 | 4.3 | 7.8 | 0.00 | 0.00 | 0.00 | 77 | 1007.9 |
| 20260506023000 | 62 | 143 | 3.5 | 7.8 | 0.00 | 0.00 | 0.00 | 77 | 1007.9 |
| 20260506022759 | 62 | 68 | 4.3 | 7.8 | 0.00 | 0.00 | 0.00 | 77 | 1007.9 |
| 20260506022600 | 62 | 140 | 4.3 | 7.8 | 0.00 | 0.00 | 0.00 | 77 | 1007.9 |
| 20260506022359 | 61 | 159 | 4.3 | 10.4 | 0.00 | 0.00 | 0.00 | 76 | 1007.8 |
| 20260506022159 | 61 | 171 | 4.3 | 10.4 | 0.00 | 0.00 | 0.00 | 76 | 1007.9 |
| 20260506021957 | 61 | 218 | 4.3 | 10.4 | 0.00 | 0.00 | 0.00 | 76 | 1007.8 |
| 20260506021753 | 61 | 129 | 3.5 | 10.4 | 0.00 | 0.00 | 0.00 | 76 | 1007.9 |
| 20260506021553 | 61 | 164 | 3.5 | 10.4 | 0.00 | 0.00 | 0.00 | 76 | 1007.8 |
| 20260506021354 | 61 | 192 | 3.5 | 8.7 | 0.00 | 0.00 | 0.00 | 76 | 1007.8 |
| 20260506021150 | 61 | 218 | 3.5 | 8.7 | 0.00 | 0.00 | 0.00 | 76 | 1007.9 |
| 20260506020950 | 61 | 197 | 3.5 | 7.8 | 0.00 | 0.00 | 0.00 | 76 | 1008.0 |
| 20260506020748 | 61 | 185 | 4.3 | 7.8 | 0.00 | 0.00 | 0.00 | 76 | 1007.9 |
| 20260506020548 | 62 | 180 | 3.5 | 7.8 | 0.00 | 0.00 | 0.00 | 75 | 1007.9 |
| 20260506020347 | 62 | 163 | 3.5 | 7.8 | 0.00 | 0.00 | 0.00 | 75 | 1007.9 |
| 20260506020147 | 62 | 183 | 3.5 | 7.8 | 0.00 | 0.00 | 0.00 | 75 | 1007.9 |
| 20260506015948 | 62 | 180 | 3.5 | 7.8 | 0.00 | 0.00 | 0.00 | 75 | 1007.9 |
| 20260506015748 | 62 | 206 | 3.5 | 7.8 | 0.00 | 0.00 | 0.00 | 75 | 1007.9 |
| 20260506015548 | 62 | 169 | 4.3 | 7.8 | 0.00 | 0.00 | 0.00 | 75 | 1007.9 |
| 20260506015347 | 62 | 197 | 4.3 | 7.8 | 0.00 | 0.00 | 0.00 | 75 | 1007.8 |
| 20260506015148 | 62 | 175 | 4.3 | 7.8 | 0.00 | 0.00 | 0.00 | 75 | 1007.8 |
| 20260506014947 | 62 | 163 | 4.3 | 8.7 | 0.00 | 0.00 | 0.00 | 75 | 1007.8 |
| 20260506014748 | 62 | 142 | 4.3 | 10.4 | 0.00 | 0.00 | 0.00 | 75 | 1007.7 |
| 20260506014548 | 62 | 179 | 4.3 | 10.4 | 0.00 | 0.00 | 0.00 | 75 | 1007.8 |
| 20260506014348 | 62 | 175 | 3.5 | 10.4 | 0.00 | 0.00 | 0.00 | 75 | 1007.7 |
| 20260506014148 | 62 | 178 | 3.5 | 10.4 | 0.00 | 0.00 | 0.00 | 75 | 1007.6 |
| 20260506013948 | 62 | 187 | 3.5 | 10.4 | 0.00 | 0.00 | 0.00 | 75 | 1007.6 |
| 20260506013748 | 62 | 172 | 3.5 | 7.8 | 0.00 | 0.00 | 0.00 | 75 | 1007.6 |
| 20260506013548 | 62 | 177 | 4.3 | 11.3 | 0.00 | 0.00 | 0.00 | 75 | 1007.6 |
| 20260506013348 | 62 | 276 | 4.3 | 11.3 | 0.00 | 0.00 | 0.00 | 74 | 1007.6 |
| 20260506013148 | 62 | 178 | 5.2 | 11.3 | 0.00 | 0.00 | 0.00 | 74 | 1007.5 |
| 20260506012948 | 62 | 176 | 5.2 | 11.3 | 0.00 | 0.00 | 0.00 | 74 | 1007.5 |
| 20260506012748 | 62 | 177 | 5.2 | 11.3 | 0.00 | 0.00 | 0.00 | 74 | 1007.5 |
| 20260506012548 | 62 | 268 | 5.2 | 10.4 | 0.00 | 0.00 | 0.00 | 74 | 1007.5 |
| 20260506012348 | 62 | 180 | 5.2 | 10.4 | 0.00 | 0.00 | 0.00 | 73 | 1007.5 |
| 20260506012148 | 62 | 173 | 5.2 | 10.4 | 0.00 | 0.00 | 0.00 | 73 | 1007.4 |
| 20260506011949 | 63 | 174 | 5.2 | 11.3 | 0.00 | 0.00 | 0.00 | 73 | 1007.4 |
| 20260506011748 | 63 | 164 | 5.2 | 11.3 | 0.00 | 0.00 | 0.00 | 73 | 1007.4 |
| 20260506011548 | 63 | 178 | 4.3 | 11.3 | 0.00 | 0.00 | 0.00 | 72 | 1007.4 |
| 20260506011349 | 63 | 163 | 4.3 | 11.3 | 0.00 | 0.00 | 0.00 | 72 | 1007.3 |
| 20260506011149 | 63 | 183 | 4.3 | 11.3 | 0.00 | 0.00 | 0.00 | 72 | 1007.4 |
| 20260506010949 | 63 | 191 | 4.3 | 7.8 | 0.00 | 0.00 | 0.00 | 72 | 1007.3 |
| 20260506010748 | 63 | 159 | 4.3 | 7.8 | 0.00 | 0.00 | 0.00 | 72 | 1007.3 |
| 20260506010548 | 63 | 154 | 4.3 | 7.8 | 0.00 | 0.00 | 0.00 | 72 | 1007.3 |
| 20260506010349 | 63 | 166 | 4.3 | 8.7 | 0.00 | 0.00 | 0.00 | 72 | 1007.3 |
| 20260506010148 | 63 | 167 | 4.3 | 8.7 | 0.00 | 0.00 | 0.00 | 72 | 1007.3 |
| 20260506005948 | 63 | 185 | 4.3 | 8.7 | 0.00 | 0.00 | 0.00 | 72 | 1007.3 |
| 20260506005749 | 63 | 163 | 4.3 | 8.7 | 0.00 | 0.00 | 0.00 | 72 | 1007.2 |
| 20260506005548 | 63 | 180 | 4.3 | 8.7 | 0.00 | 0.00 | 0.00 | 72 | 1007.1 |
| 20260506005346 | 63 | 168 | 4.3 | 7.8 | 0.00 | 0.00 | 0.00 | 72 | 1007.1 |
| 20260506005143 | 63 | 168 | 3.5 | 7.8 | 0.00 | 0.00 | 0.00 | 72 | 1007.1 |
| 20260506004943 | 63 | 182 | 3.5 | 8.7 | 0.00 | 0.00 | 0.00 | 71 | 1007.1 |
| 20260506004743 | 64 | 168 | 4.3 | 10.4 | 0.00 | 0.00 | 0.00 | 71 | 1007.1 |
| 20260506004542 | 64 | 216 | 3.5 | 10.4 | 0.00 | 0.00 | 0.00 | 70 | 1007.1 |
| 20260506004343 | 64 | 168 | 3.5 | 10.4 | 0.00 | 0.00 | 0.00 | 70 | 1007.1 |
| 20260506004143 | 64 | 166 | 3.5 | 10.4 | 0.00 | 0.00 | 0.00 | 70 | 1007.0 |
| 20260506003943 | 64 | 216 | 3.5 | 10.4 | 0.00 | 0.00 | 0.00 | 69 | 1006.9 |
| 20260506003743 | 64 | 168 | 3.5 | 7.8 | 0.00 | 0.00 | 0.00 | 69 | 1007.0 |
| 20260506003543 | 64 | 230 | 3.5 | 7.8 | 0.00 | 0.00 | 0.00 | 69 | 1007.0 |
| 20260506003343 | 64 | 175 | 3.5 | 7.8 | 0.00 | 0.00 | 0.00 | 69 | 1006.9 |
| 20260506003143 | 64 | 250 | 3.5 | 7.8 | 0.00 | 0.00 | 0.00 | 69 | 1006.9 |
| 20260506002943 | 64 | 171 | 3.5 | 7.8 | 0.00 | 0.00 | 0.00 | 68 | 1006.9 |
| 20260506002826 | 65 | 163 | 3.5 | 7.8 | 0.00 | 0.00 | 0.00 | 68 | 1006.8 |
| 20260506002601 | 65 | 201 | 3.5 | 7.8 | 0.00 | 0.00 | 0.00 | 68 | 1006.8 |
| 20260506002343 | 65 | 171 | 3.5 | 7.8 | 0.00 | 0.00 | 0.00 | 68 | 1006.8 |
| 20260506002143 | 65 | 186 | 3.5 | 7.8 | 0.00 | 0.00 | 0.00 | 68 | 1006.8 |
| 20260506001943 | 65 | 151 | 3.5 | 7.8 | 0.00 | 0.00 | 0.00 | 68 | 1006.8 |
| 20260506001743 | 65 | 290 | 3.5 | 7.8 | 0.00 | 0.00 | 0.00 | 68 | 1006.7 |
| 20260506001543 | 65 | 178 | 3.5 | 7.8 | 0.00 | 0.00 | 0.00 | 68 | 1006.8 |
| 20260506001343 | 65 | 169 | 3.5 | 7.8 | 0.00 | 0.00 | 0.00 | 68 | 1006.8 |
| 20260506001143 | 65 | 183 | 3.5 | 10.4 | 0.00 | 0.00 | 0.00 | 67 | 1006.7 |
| 20260506000943 | 65 | 177 | 3.5 | 10.4 | 0.00 | 0.00 | 0.00 | 68 | 1006.7 |
| 20260506000743 | 64 | 181 | 3.5 | 10.4 | 0.00 | 0.00 | 0.00 | 68 | 1006.7 |
| 20260506000543 | 65 | 184 | 3.5 | 10.4 | 0.00 | 0.00 | 0.00 | 68 | 1006.7 |
| 20260506000344 | 65 | 186 | 3.5 | 10.4 | 0.00 | 0.00 | 0.00 | 67 | 1006.6 |
| 20260506000144 | 65 | 176 | 3.5 | 7.0 | 0.00 | 0.00 | 0.00 | 68 | 1006.6 |
| 20260505235943 | 65 | 193 | 3.5 | 7.0 | 0.00 | 0.00 | 0.00 | 67 | 1006.5 |
| 20260505235743 | 65 | 74 | 2.6 | 7.0 | 0.00 | 0.00 | 0.00 | 67 | 1006.6 |
| 20260505235543 | 65 | 158 | 3.5 | 7.0 | 0.00 | 0.00 | 0.00 | 67 | 1006.5 |
| 20260505235344 | 65 | 174 | 3.5 | 7.0 | 0.00 | 0.00 | 0.00 | 67 | 1006.5 |
| 20260505235143 | 65 | 55 | 2.6 | 7.0 | 0.00 | 0.00 | 0.00 | 67 | 1006.5 |
| 20260505234943 | 65 | 279 | 2.6 | 7.8 | 0.00 | 0.00 | 0.00 | 67 | 1006.6 |
| 20260505234744 | 65 | 167 | 3.5 | 7.8 | 0.00 | 0.00 | 0.00 | 67 | 1006.5 |
| 20260505234559 | 65 | 154 | 3.5 | 7.8 | 0.00 | 0.00 | 0.00 | 67 | 1006.5 |
| 20260505234343 | 65 | 243 | 3.5 | 7.8 | 0.00 | 0.00 | 0.00 | 67 | 1006.4 |
| 20260505234141 | 65 | 217 | 3.5 | 7.8 | 0.00 | 0.00 | 0.00 | 67 | 1006.3 |
| 20260505233940 | 65 | 173 | 4.3 | 8.7 | 0.00 | 0.00 | 0.00 | 67 | 1006.3 |
| 20260505233741 | 65 | 149 | 4.3 | 8.7 | 0.00 | 0.00 | 0.00 | 66 | 1006.2 |
| 20260505233542 | 65 | 186 | 4.3 | 8.7 | 0.00 | 0.00 | 0.00 | 66 | 1006.2 |
| 20260505233340 | 65 | 172 | 4.3 | 8.7 | 0.00 | 0.00 | 0.00 | 66 | 1006.3 |
| 20260505233140 | 65 | 183 | 4.3 | 8.7 | 0.00 | 0.00 | 0.00 | 66 | 1006.2 |
| 20260505232941 | 65 | 176 | 3.5 | 8.7 | 0.00 | 0.00 | 0.00 | 66 | 1006.2 |
| 20260505232741 | 65 | 201 | 3.5 | 8.7 | 0.00 | 0.00 | 0.00 | 66 | 1006.1 |
| 20260505232541 | 65 | 172 | 3.5 | 8.7 | 0.00 | 0.00 | 0.00 | 66 | 1006.0 |
| 20260505232341 | 65 | 268 | 3.5 | 8.7 | 0.00 | 0.00 | 0.00 | 66 | 1006.1 |
| 20260505232141 | 65 | 245 | 2.6 | 6.1 | 0.00 | 0.00 | 0.00 | 66 | 1006.0 |
| 20260505231941 | 65 | 182 | 2.6 | 6.1 | 0.00 | 0.00 | 0.00 | 66 | 1006.0 |
| 20260505231741 | 65 | 279 | 2.6 | 7.0 | 0.00 | 0.00 | 0.00 | 66 | 1006.0 |
| 20260505231541 | 65 | 147 | 3.5 | 7.0 | 0.00 | 0.00 | 0.00 | 66 | 1006.0 |
| 20260505231341 | 65 | 215 | 3.5 | 7.0 | 0.00 | 0.00 | 0.00 | 66 | 1005.9 |
| 20260505231141 | 65 | 176 | 3.5 | 7.0 | 0.00 | 0.00 | 0.00 | 66 | 1005.9 |
| 20260505230941 | 65 | 171 | 4.3 | 9.6 | 0.00 | 0.00 | 0.00 | 66 | 1005.9 |
| 20260505230741 | 65 | 198 | 4.3 | 9.6 | 0.00 | 0.00 | 0.00 | 66 | 1005.9 |
| 20260505230541 | 65 | 172 | 4.3 | 9.6 | 0.00 | 0.00 | 0.00 | 66 | 1005.9 |
| 20260505230341 | 65 | 205 | 3.5 | 9.6 | 0.00 | 0.00 | 0.00 | 66 | 1005.8 |
| 20260505230141 | 65 | 168 | 3.5 | 9.6 | 0.00 | 0.00 | 0.00 | 66 | 1005.8 |
| 20260505225941 | 65 | 175 | 3.5 | 9.6 | 0.00 | 0.00 | 0.00 | 65 | 1005.8 |
| 20260505225741 | 66 | 180 | 3.5 | 9.6 | 0.00 | 0.00 | 0.00 | 65 | 1005.7 |
| 20260505225541 | 66 | 217 | 2.6 | 7.0 | 0.00 | 0.00 | 0.00 | 65 | 1005.7 |
| 20260505225341 | 66 | 212 | 3.5 | 7.0 | 0.00 | 0.00 | 0.00 | 64 | 1005.8 |
| 20260505225142 | 66 | 172 | 3.5 | 7.0 | 0.00 | 0.00 | 0.00 | 64 | 1005.8 |
| 20260505224942 | 66 | 169 | 3.5 | 7.8 | 0.00 | 0.00 | 0.00 | 64 | 1005.8 |
| 20260505224741 | 66 | 243 | 3.5 | 13.0 | 0.00 | 0.00 | 0.00 | 64 | 1005.8 |
| 20260505224541 | 66 | 189 | 3.5 | 13.0 | 0.00 | 0.00 | 0.00 | 64 | 1005.8 |
| 20260505224342 | 66 | 209 | 4.3 | 13.0 | 0.00 | 0.00 | 0.00 | 64 | 1005.9 |
| 20260505224142 | 66 | 180 | 5.2 | 15.6 | 0.00 | 0.00 | 0.00 | 64 | 1005.9 |
| 20260505223941 | 67 | 179 | 5.2 | 15.6 | 0.00 | 0.00 | 0.00 | 63 | 1005.9 |
| 20260505223742 | 67 | 179 | 5.2 | 15.6 | 0.00 | 0.00 | 0.00 | 63 | 1005.8 |
| 20260505223542 | 67 | 182 | 5.2 | 15.6 | 0.00 | 0.00 | 0.00 | 62 | 1005.7 |
| 20260505223342 | 67 | 172 | 5.2 | 15.6 | 0.00 | 0.00 | 0.00 | 61 | 1005.7 |
| 20260505223142 | 67 | 185 | 5.2 | 14.8 | 0.00 | 0.00 | 0.00 | 61 | 1005.6 |
| 20260505222942 | 67 | 158 | 5.2 | 11.3 | 0.00 | 0.00 | 0.00 | 61 | 1005.7 |
| 20260505222739 | 68 | 187 | 5.2 | 11.3 | 0.00 | 0.00 | 0.00 | 61 | 1005.6 |
| 20260505222539 | 68 | 172 | 5.2 | 11.3 | 0.00 | 0.00 | 0.00 | 61 | 1005.5 |
| 20260505222339 | 68 | 183 | 5.2 | 11.3 | 0.00 | 0.00 | 0.00 | 60 | 1005.5 |
| 20260505222138 | 68 | 185 | 5.2 | 11.3 | 0.00 | 0.00 | 0.00 | 60 | 1005.6 |
| 20260505221938 | 68 | 193 | 5.2 | 10.4 | 0.00 | 0.00 | 0.00 | 60 | 1005.6 |
| 20260505221739 | 68 | 152 | 5.2 | 10.4 | 0.00 | 0.00 | 0.00 | 60 | 1005.6 |
| 20260505221536 | 68 | 194 | 5.2 | 10.4 | 0.00 | 0.00 | 0.00 | 60 | 1005.5 |
| 20260505221335 | 68 | 174 | 5.2 | 11.3 | 0.00 | 0.00 | 0.00 | 60 | 1005.5 |
| 20260505221135 | 68 | 80 | 5.2 | 11.3 | 0.00 | 0.00 | 0.00 | 60 | 1005.5 |
| 20260505220936 | 68 | 202 | 5.2 | 11.3 | 0.00 | 0.00 | 0.00 | 60 | 1005.5 |
| 20260505220736 | 68 | 187 | 5.2 | 11.3 | 0.00 | 0.00 | 0.00 | 60 | 1005.6 |
| 20260505220536 | 69 | 196 | 5.2 | 11.3 | 0.00 | 0.00 | 0.00 | 60 | 1005.6 |
| 20260505220335 | 69 | 124 | 5.2 | 11.3 | 0.00 | 0.00 | 0.00 | 60 | 1005.6 |
| 20260505220137 | 69 | 298 | 5.2 | 10.4 | 0.00 | 0.00 | 0.00 | 60 | 1005.6 |
| 20260505215936 | 69 | 152 | 5.2 | 10.4 | 0.00 | 0.00 | 0.00 | 60 | 1005.5 |
| 20260505215736 | 69 | 162 | 5.2 | 10.4 | 0.00 | 0.00 | 0.00 | 59 | 1005.5 |
| 20260505215536 | 69 | 190 | 5.2 | 10.4 | 0.00 | 0.00 | 0.00 | 59 | 1005.5 |
| 20260505215336 | 69 | 194 | 5.2 | 10.4 | 0.00 | 0.00 | 0.00 | 60 | 1005.6 |
| 20260505215136 | 69 | 185 | 5.2 | 11.3 | 0.00 | 0.00 | 0.00 | 60 | 1005.6 |
| 20260505214937 | 69 | 151 | 5.2 | 11.3 | 0.00 | 0.00 | 0.00 | 59 | 1005.7 |
| 20260505214736 | 69 | 183 | 5.2 | 11.3 | 0.00 | 0.00 | 0.00 | 59 | 1005.6 |
| 20260505214536 | 69 | 177 | 5.2 | 11.3 | 0.00 | 0.00 | 0.00 | 60 | 1005.5 |
| 20260505214337 | 69 | 182 | 5.2 | 11.3 | 0.00 | 0.00 | 0.00 | 59 | 1005.5 |
| 20260505214136 | 69 | 182 | 4.3 | 10.4 | 0.00 | 0.00 | 0.00 | 60 | 1005.6 |
| 20260505213936 | 69 | 184 | 4.3 | 10.4 | 0.00 | 0.00 | 0.00 | 60 | 1005.6 |
| 20260505213736 | 69 | 173 | 4.3 | 9.6 | 0.00 | 0.00 | 0.00 | 60 | 1005.6 |
| 20260505213537 | 69 | 200 | 3.5 | 8.7 | 0.00 | 0.00 | 0.00 | 60 | 1005.6 |
| 20260505213337 | 69 | 208 | 4.3 | 9.6 | 0.00 | 0.00 | 0.00 | 60 | 1005.6 |
| 20260505213136 | 69 | 205 | 4.3 | 9.6 | 0.00 | 0.00 | 0.00 | 60 | 1005.6 |
| 20260505212936 | 69 | 281 | 4.3 | 10.4 | 0.00 | 0.00 | 0.00 | 60 | 1005.5 |
| 20260505212737 | 68 | 185 | 5.2 | 11.3 | 0.00 | 0.00 | 0.00 | 60 | 1005.5 |
| 20260505212548 | 68 | 281 | 5.2 | 11.3 | 0.00 | 0.00 | 0.00 | 61 | 1005.4 |
| 20260505212336 | 68 | 202 | 5.2 | 11.3 | 0.00 | 0.00 | 0.00 | 61 | 1005.4 |
| 20260505212137 | 68 | 195 | 5.2 | 11.3 | 0.00 | 0.00 | 0.00 | 61 | 1005.5 |
| 20260505211933 | 68 | 191 | 5.2 | 11.3 | 0.00 | 0.00 | 0.00 | 61 | 1005.3 |
| 20260505211734 | 68 | 163 | 5.2 | 9.6 | 0.00 | 0.00 | 0.00 | 61 | 1005.4 |
| 20260505211534 | 68 | 194 | 5.2 | 9.6 | 0.00 | 0.00 | 0.00 | 61 | 1005.3 |
| 20260505211333 | 68 | 194 | 5.2 | 9.6 | 0.00 | 0.00 | 0.00 | 62 | 1005.3 |
| 20260505211134 | 68 | 183 | 4.3 | 9.6 | 0.00 | 0.00 | 0.00 | 62 | 1005.3 |
| 20260505210934 | 68 | 177 | 5.2 | 10.4 | 0.00 | 0.00 | 0.00 | 62 | 1005.3 |
| 20260505210734 | 68 | 191 | 5.2 | 10.4 | 0.00 | 0.00 | 0.00 | 63 | 1005.3 |
| 20260505210534 | 68 | 183 | 5.2 | 10.4 | 0.00 | 0.00 | 0.00 | 63 | 1005.4 |
| 20260505210333 | 68 | 221 | 4.3 | 10.4 | 0.00 | 0.00 | 0.00 | 63 | 1005.4 |
| 20260505210134 | 68 | 192 | 5.2 | 10.4 | 0.00 | 0.00 | 0.00 | 63 | 1005.4 |
| 20260505205934 | 68 | 150 | 4.3 | 8.7 | 0.00 | 0.00 | 0.00 | 63 | 1005.2 |
| 20260505205734 | 68 | 186 | 4.3 | 9.6 | 0.00 | 0.00 | 0.00 | 62 | 1005.4 |
| 20260505205534 | 68 | 212 | 4.3 | 9.6 | 0.00 | 0.00 | 0.00 | 63 | 1005.4 |
| 20260505205334 | 68 | 160 | 4.3 | 9.6 | 0.00 | 0.00 | 0.00 | 63 | 1005.4 |
| 20260505205134 | 68 | 174 | 4.3 | 9.6 | 0.00 | 0.00 | 0.00 | 63 | 1005.4 |
| 20260505204934 | 68 | 176 | 4.3 | 9.6 | 0.00 | 0.00 | 0.00 | 63 | 1005.4 |
| 20260505204734 | 68 | 194 | 3.5 | 8.7 | 0.00 | 0.00 | 0.00 | 63 | 1005.5 |
| 20260505204534 | 68 | 160 | 4.3 | 8.7 | 0.00 | 0.00 | 0.00 | 63 | 1005.4 |
| 20260505204334 | 68 | 195 | 3.5 | 8.7 | 0.00 | 0.00 | 0.00 | 63 | 1005.5 |
| 20260505204134 | 68 | 183 | 3.5 | 8.7 | 0.00 | 0.00 | 0.00 | 63 | 1005.5 |
| 20260505203934 | 68 | 187 | 3.5 | 8.7 | 0.00 | 0.00 | 0.00 | 62 | 1005.4 |
| 20260505203734 | 68 | 188 | 3.5 | 8.7 | 0.00 | 0.00 | 0.00 | 62 | 1005.4 |
| 20260505203535 | 68 | 219 | 4.3 | 8.7 | 0.00 | 0.00 | 0.00 | 63 | 1005.5 |
| 20260505203334 | 68 | 174 | 4.3 | 8.7 | 0.00 | 0.00 | 0.00 | 63 | 1005.4 |
| 20260505203135 | 68 | 182 | 4.3 | 10.4 | 0.00 | 0.00 | 0.00 | 63 | 1005.4 |
| 20260505202935 | 68 | 180 | 5.2 | 10.4 | 0.00 | 0.00 | 0.00 | 63 | 1005.4 |
| 20260505202735 | 68 | 186 | 5.2 | 10.4 | 0.00 | 0.00 | 0.00 | 63 | 1005.5 |
| 20260505202544 | 68 | 194 | 5.2 | 10.4 | 0.00 | 0.00 | 0.00 | 63 | 1005.5 |
| 20260505202134 | 68 | 181 | 5.2 | 10.4 | 0.00 | 0.00 | 0.00 | 63 | 1005.6 |
| 20260505201934 | 69 | 277 | 5.2 | 10.4 | 0.00 | 0.00 | 0.00 | 62 | 1005.6 |
| 20260505201732 | 69 | 152 | 5.2 | 10.4 | 0.00 | 0.00 | 0.00 | 62 | 1005.6 |
| 20260505201532 | 69 | 149 | 4.3 | 9.6 | 0.00 | 0.00 | 0.00 | 62 | 1005.6 |
| 20260505201329 | 69 | 166 | 4.3 | 8.7 | 0.00 | 0.00 | 0.00 | 62 | 1005.6 |
| 20260505201129 | 69 | 193 | 4.3 | 8.7 | 0.00 | 0.00 | 0.00 | 62 | 1005.6 |
| 20260505200928 | 70 | 178 | 3.5 | 8.7 | 0.00 | 0.00 | 0.00 | 60 | 1005.7 |
| 20260505200726 | 70 | 171 | 3.5 | 7.8 | 0.00 | 0.00 | 0.00 | 60 | 1005.6 |
| 20260505200526 | 70 | 317 | 3.5 | 8.7 | 0.00 | 0.00 | 0.00 | 61 | 1005.6 |
| 20260505200327 | 70 | 194 | 3.5 | 8.7 | 0.00 | 0.00 | 0.00 | 60 | 1005.6 |
| 20260505200123 | 70 | 138 | 3.5 | 8.7 | 0.00 | 0.00 | 0.00 | 60 | 1005.7 |
| 20260505195923 | 70 | 80 | 3.5 | 8.7 | 0.00 | 0.00 | 0.00 | 62 | 1005.7 |
| 20260505195722 | 70 | 184 | 3.5 | 8.7 | 0.00 | 0.00 | 0.00 | 61 | 1005.8 |
| 20260505195523 | 71 | 155 | 3.5 | 9.6 | 0.00 | 0.00 | 0.00 | 60 | 1005.7 |
| 20260505195323 | 71 | 194 | 3.5 | 9.6 | 0.00 | 0.00 | 0.00 | 60 | 1005.7 |
| 20260505195123 | 71 | 158 | 3.5 | 9.6 | 0.00 | 0.00 | 0.00 | 60 | 1005.7 |
| 20260505194923 | 71 | 164 | 3.5 | 9.6 | 0.00 | 0.00 | 0.00 | 60 | 1005.8 |
| 20260505194723 | 71 | 189 | 3.5 | 9.6 | 0.00 | 0.00 | 0.00 | 59 | 1005.8 |
| 20260505194523 | 71 | 281 | 3.5 | 7.8 | 0.00 | 0.00 | 0.00 | 61 | 1006.0 |
| 20260505194323 | 70 | 250 | 3.5 | 7.8 | 0.00 | 0.00 | 0.00 | 60 | 1005.9 |
| 20260505194122 | 70 | 299 | 3.5 | 7.8 | 0.00 | 0.00 | 0.00 | 61 | 1006.0 |
| 20260505193922 | 70 | 156 | 3.5 | 7.8 | 0.00 | 0.00 | 0.00 | 59 | 1005.9 |
| 20260505193723 | 70 | 277 | 3.5 | 6.1 | 0.00 | 0.00 | 0.00 | 61 | 1006.0 |
| 20260505193523 | 70 | 74 | 3.5 | 7.8 | 0.00 | 0.00 | 0.00 | 61 | 1005.9 |
| 20260505193323 | 70 | 214 | 3.5 | 7.8 | 0.00 | 0.00 | 0.00 | 61 | 1006.0 |
| 20260505193121 | 70 | 334 | 3.5 | 7.8 | 0.00 | 0.00 | 0.00 | 61 | 1006.1 |
| 20260505192921 | 69 | 106 | 3.5 | 7.8 | 0.00 | 0.00 | 0.00 | 62 | 1006.1 |
| 20260505192722 | 69 | 181 | 3.5 | 7.8 | 0.00 | 0.00 | 0.00 | 62 | 1006.2 |
| 20260505192522 | 69 | 324 | 3.5 | 7.8 | 0.00 | 0.00 | 0.00 | 62 | 1006.2 |
| 20260505192322 | 69 | 210 | 3.5 | 7.8 | 0.00 | 0.00 | 0.00 | 62 | 1006.2 |
| 20260505192122 | 69 | 160 | 3.5 | 7.8 | 0.00 | 0.00 | 0.00 | 63 | 1006.3 |
| 20260505191921 | 69 | 158 | 3.5 | 7.8 | 0.00 | 0.00 | 0.00 | 63 | 1006.3 |
| 20260505191721 | 69 | 182 | 3.5 | 7.8 | 0.00 | 0.00 | 0.00 | 62 | 1006.3 |
| 20260505191521 | 69 | 159 | 3.5 | 7.0 | 0.00 | 0.00 | 0.00 | 62 | 1006.5 |
| 20260505191322 | 69 | 182 | 3.5 | 7.0 | 0.00 | 0.00 | 0.00 | 63 | 1006.5 |
| 20260505191122 | 69 | 188 | 3.5 | 7.0 | 0.00 | 0.00 | 0.00 | 63 | 1006.4 |
| 20260505190921 | 69 | 178 | 3.5 | 7.8 | 0.00 | 0.00 | 0.00 | 63 | 1006.4 |
| 20260505190722 | 69 | 174 | 3.5 | 9.6 | 0.00 | 0.00 | 0.00 | 63 | 1006.6 |
| 20260505190520 | 69 | 293 | 4.3 | 9.6 | 0.00 | 0.00 | 0.00 | 63 | 1006.5 |
| 20260505190321 | 69 | 187 | 4.3 | 9.6 | 0.00 | 0.00 | 0.00 | 64 | 1006.6 |
| 20260505190121 | 69 | 179 | 4.3 | 9.6 | 0.00 | 0.00 | 0.00 | 63 | 1006.5 |
| 20260505185920 | 69 | 170 | 4.3 | 13.0 | 0.00 | 0.00 | 0.00 | 63 | 1006.6 |
| 20260505185721 | 69 | 279 | 4.3 | 13.0 | 0.00 | 0.00 | 0.00 | 63 | 1006.8 |
| 20260505185521 | 69 | 184 | 4.3 | 13.0 | 0.00 | 0.00 | 0.00 | 63 | 1006.7 |
| 20260505185318 | 69 | 181 | 5.2 | 13.0 | 0.00 | 0.00 | 0.00 | 63 | 1006.7 |
| 20260505185115 | 69 | 196 | 5.2 | 13.0 | 0.00 | 0.00 | 0.00 | 63 | 1006.7 |
| 20260505184915 | 69 | 175 | 4.3 | 9.6 | 0.00 | 0.00 | 0.00 | 63 | 1006.7 |
| 20260505184715 | 69 | 170 | 4.3 | 9.6 | 0.00 | 0.00 | 0.00 | 63 | 1006.9 |
| 20260505184515 | 70 | 188 | 4.3 | 9.6 | 0.00 | 0.00 | 0.00 | 63 | 1006.9 |
| 20260505184314 | 70 | 251 | 3.5 | 9.6 | 0.00 | 0.00 | 0.00 | 62 | 1006.8 |
| 20260505184115 | 70 | 304 | 3.5 | 8.7 | 0.00 | 0.00 | 0.00 | 61 | 1006.9 |
| 20260505183915 | 70 | 182 | 3.5 | 8.7 | 0.00 | 0.00 | 0.00 | 61 | 1007.0 |
| 20260505183715 | 70 | 202 | 3.5 | 8.7 | 0.00 | 0.00 | 0.00 | 63 | 1007.0 |
| 20260505183514 | 70 | 114 | 3.5 | 8.7 | 0.00 | 0.00 | 0.00 | 62 | 1007.0 |
| 20260505183315 | 70 | 186 | 3.5 | 8.7 | 0.00 | 0.00 | 0.00 | 62 | 1007.0 |
| 20260505183115 | 70 | 165 | 3.5 | 7.8 | 0.00 | 0.00 | 0.00 | 63 | 1007.1 |
| 20260505182915 | 70 | 315 | 3.5 | 7.8 | 0.00 | 0.00 | 0.00 | 64 | 1007.0 |
| 20260505182715 | 70 | 265 | 3.5 | 6.1 | 0.00 | 0.00 | 0.00 | 63 | 1007.0 |
| 20260505182315 | 70 | 135 | 3.5 | 7.0 | 0.00 | 0.00 | 0.00 | 62 | 1007.0 |
| 20260505182115 | 70 | 285 | 3.5 | 7.0 | 0.00 | 0.00 | 0.00 | 62 | 1007.0 |
| 20260505181915 | 70 | 276 | 3.5 | 7.0 | 0.00 | 0.00 | 0.00 | 63 | 1007.1 |
| 20260505181715 | 70 | 142 | 2.6 | 7.0 | 0.00 | 0.00 | 0.00 | 64 | 1007.0 |
| 20260505181515 | 70 | 124 | 2.6 | 7.0 | 0.00 | 0.00 | 0.00 | 63 | 1007.0 |
| 20260505181315 | 70 | 140 | 2.6 | 6.1 | 0.00 | 0.00 | 0.00 | 63 | 1007.1 |
| 20260505181115 | 70 | 317 | 2.6 | 6.1 | 0.00 | 0.00 | 0.00 | 64 | 1007.1 |
| 20260505180915 | 70 | 166 | 2.6 | 7.0 | 0.00 | 0.00 | 0.00 | 63 | 1007.1 |
| 20260505180716 | 70 | 276 | 3.5 | 7.0 | 0.00 | 0.00 | 0.00 | 63 | 1007.1 |
| 20260505180516 | 70 | 130 | 3.5 | 7.0 | 0.00 | 0.00 | 0.00 | 63 | 1007.1 |
| 20260505180315 | 69 | 274 | 2.6 | 7.0 | 0.00 | 0.00 | 0.00 | 64 | 1007.1 |
| 20260505180115 | 69 | 100 | 2.6 | 7.0 | 0.00 | 0.00 | 0.00 | 64 | 1007.1 |
| 20260505175915 | 69 | 191 | 2.6 | 7.0 | 0.00 | 0.00 | 0.00 | 64 | 1007.1 |
| 20260505175715 | 69 | 186 | 2.6 | 7.0 | 0.00 | 0.00 | 0.00 | 64 | 1007.2 |
| 20260505175516 | 69 | 320 | 2.6 | 6.1 | 0.00 | 0.00 | 0.00 | 64 | 1007.2 |
| 20260505175316 | 69 | 124 | 2.6 | 6.1 | 0.00 | 0.00 | 0.00 | 64 | 1007.2 |
| 20260505175115 | 69 | 104 | 2.6 | 6.1 | 0.00 | 0.00 | 0.00 | 64 | 1007.3 |
| 20260505174912 | 69 | 155 | 2.6 | 5.2 | 0.00 | 0.00 | 0.00 | 64 | 1007.3 |
| 20260505174713 | 69 | 302 | 2.6 | 5.2 | 0.00 | 0.00 | 0.00 | 64 | 1007.3 |
| 20260505174510 | 69 | 114 | 2.6 | 7.0 | 0.00 | 0.00 | 0.00 | 65 | 1007.3 |
| 20260505174307 | 69 | 117 | 3.5 | 7.0 | 0.00 | 0.00 | 0.00 | 65 | 1007.3 |
| 20260505174109 | 69 | 91 | 2.6 | 7.0 | 0.00 | 0.00 | 0.00 | 65 | 1007.3 |
| 20260505173905 | 69 | 204 | 2.6 | 7.0 | 0.00 | 0.00 | 0.00 | 65 | 1007.3 |
| 20260505173705 | 69 | 167 | 3.5 | 7.0 | 0.00 | 0.00 | 0.00 | 64 | 1007.3 |
| 20260505173534 | 69 | 169 | 2.6 | 7.0 | 0.00 | 0.00 | 0.00 | 64 | 1007.3 |
| 20260505173305 | 69 | 196 | 2.6 | 7.0 | 0.00 | 0.00 | 0.00 | 65 | 1007.4 |
| 20260505173104 | 69 | 182 | 3.5 | 7.0 | 0.00 | 0.00 | 0.00 | 64 | 1007.4 |
| 20260505172905 | 69 | 184 | 3.5 | 7.0 | 0.00 | 0.00 | 0.00 | 64 | 1007.4 |
| 20260505172705 | 69 | 37 | 3.5 | 7.0 | 0.00 | 0.00 | 0.00 | 65 | 1007.3 |
| 20260505172505 | 68 | 119 | 3.5 | 7.0 | 0.00 | 0.00 | 0.00 | 66 | 1007.4 |
| 20260505172306 | 69 | 198 | 4.3 | 7.0 | 0.00 | 0.00 | 0.00 | 66 | 1007.4 |
| 20260505172106 | 69 | 187 | 3.5 | 7.0 | 0.00 | 0.00 | 0.00 | 65 | 1007.4 |
| 20260505171905 | 69 | 196 | 3.5 | 7.0 | 0.00 | 0.00 | 0.00 | 64 | 1007.4 |
| 20260505171706 | 69 | 167 | 3.5 | 7.0 | 0.00 | 0.00 | 0.00 | 64 | 1007.4 |
| 20260505171506 | 69 | 287 | 4.3 | 7.8 | 0.00 | 0.00 | 0.00 | 64 | 1007.4 |
| 20260505171305 | 69 | 174 | 4.3 | 7.8 | 0.00 | 0.00 | 0.00 | 65 | 1007.4 |
| 20260505171106 | 70 | 182 | 4.3 | 7.8 | 0.00 | 0.00 | 0.00 | 64 | 1007.4 |
| 20260505170906 | 70 | 182 | 3.5 | 7.8 | 0.00 | 0.00 | 0.00 | 63 | 1007.4 |
| 20260505170705 | 71 | 182 | 3.5 | 7.8 | 0.00 | 0.00 | 0.00 | 63 | 1007.5 |
| 20260505170505 | 71 | 179 | 2.6 | 7.8 | 0.00 | 0.00 | 0.00 | 62 | 1007.5 |
| 20260505170306 | 71 | 196 | 2.6 | 7.0 | 0.00 | 0.00 | 0.00 | 62 | 1007.5 |
| 20260505170106 | 71 | 124 | 2.6 | 7.0 | 0.00 | 0.00 | 0.00 | 61 | 1007.5 |
| 20260505165906 | 71 | 181 | 2.6 | 7.0 | 0.00 | 0.00 | 0.00 | 62 | 1007.5 |
| 20260505165705 | 71 | 272 | 2.6 | 7.0 | 0.00 | 0.00 | 0.00 | 62 | 1007.5 |
| 20260505165505 | 71 | 177 | 2.6 | 7.0 | 0.00 | 0.00 | 0.00 | 62 | 1007.5 |
| 20260505165306 | 71 | 299 | 2.6 | 7.0 | 0.00 | 0.00 | 0.00 | 61 | 1007.5 |
| 20260505165106 | 71 | 66 | 3.5 | 7.8 | 0.00 | 0.00 | 0.00 | 61 | 1007.5 |
| 20260505164906 | 71 | 179 | 3.5 | 7.8 | 0.00 | 0.00 | 0.00 | 61 | 1007.5 |
| 20260505164705 | 71 | 253 | 3.5 | 7.8 | 0.00 | 0.00 | 0.00 | 61 | 1007.6 |
| 20260505164506 | 70 | 211 | 3.5 | 7.8 | 0.00 | 0.00 | 0.00 | 62 | 1007.5 |
| 20260505164305 | 70 | 178 | 3.5 | 7.8 | 0.00 | 0.00 | 0.00 | 61 | 1007.6 |
| 20260505164106 | 71 | 187 | 2.6 | 6.1 | 0.00 | 0.00 | 0.00 | 61 | 1007.6 |
| 20260505163905 | 71 | 167 | 2.6 | 5.2 | 0.00 | 0.00 | 0.00 | 61 | 1007.6 |
| 20260505163704 | 71 | 261 | 2.6 | 5.2 | 0.00 | 0.00 | 0.00 | 60 | 1007.7 |
| 20260505163504 | 71 | 303 | 2.6 | 5.2 | 0.00 | 0.00 | 0.00 | 61 | 1007.7 |
| 20260505163305 | 71 | 125 | 3.5 | 7.0 | 0.00 | 0.00 | 0.00 | 61 | 1007.7 |
| 20260505163105 | 71 | 267 | 2.6 | 7.0 | 0.00 | 0.00 | 0.00 | 61 | 1007.8 |
| 20260505162905 | 71 | 102 | 2.6 | 7.0 | 0.00 | 0.00 | 0.00 | 61 | 1007.8 |
| 20260505162702 | 71 | 103 | 3.5 | 7.0 | 0.00 | 0.00 | 0.00 | 59 | 1007.8 |
| 20260505162502 | 71 | 12 | 2.6 | 7.8 | 0.00 | 0.00 | 0.00 | 60 | 1007.9 |
| 20260505162301 | 71 | 130 | 3.5 | 7.8 | 0.00 | 0.00 | 0.00 | 61 | 1007.9 |
| 20260505162101 | 71 | 171 | 3.5 | 7.8 | 0.00 | 0.00 | 0.00 | 61 | 1007.9 |
| 20260505161901 | 71 | 184 | 3.5 | 7.8 | 0.00 | 0.00 | 0.00 | 61 | 1007.9 |
| 20260505161702 | 71 | 167 | 3.5 | 7.8 | 0.00 | 0.00 | 0.00 | 62 | 1007.9 |
| 20260505161502 | 71 | 183 | 3.5 | 7.8 | 0.00 | 0.00 | 0.00 | 61 | 1007.9 |
| 20260505161302 | 71 | 174 | 3.5 | 7.0 | 0.00 | 0.00 | 0.00 | 61 | 1007.9 |
| 20260505161102 | 71 | 180 | 3.5 | 7.0 | 0.00 | 0.00 | 0.00 | 61 | 1008.0 |
| 20260505160902 | 71 | 171 | 3.5 | 7.0 | 0.00 | 0.00 | 0.00 | 62 | 1007.9 |
| 20260505160702 | 71 | 150 | 3.5 | 7.0 | 0.00 | 0.00 | 0.00 | 59 | 1007.9 |
| 20260505160502 | 71 | 189 | 3.5 | 7.0 | 0.00 | 0.00 | 0.00 | 60 | 1007.9 |
| 20260505160303 | 71 | 108 | 3.5 | 7.0 | 0.00 | 0.00 | 0.00 | 62 | 1007.9 |
| 20260505153303 | 70 | 154 | 2.6 | 5.2 | 0.00 | 0.00 | 0.00 | 62 | 1008.0 |
| 20260505153103 | 70 | 212 | 2.6 | 5.2 | 0.00 | 0.00 | 0.00 | 61 | 1008.1 |
| 20260505152902 | 70 | 189 | 2.6 | 5.2 | 0.00 | 0.00 | 0.00 | 62 | 1008.1 |
| 20260505152703 | 70 | 324 | 2.6 | 5.2 | 0.00 | 0.00 | 0.00 | 61 | 1008.2 |
| 20260505152503 | 70 | 200 | 2.6 | 6.1 | 0.00 | 0.00 | 0.00 | 62 | 1008.3 |
| 20260505152305 | 69 | 178 | 2.6 | 6.1 | 0.00 | 0.00 | 0.00 | 62 | 1008.3 |
| 20260505152102 | 69 | 204 | 2.6 | 7.0 | 0.00 | 0.00 | 0.00 | 63 | 1008.3 |
| 20260505151902 | 69 | 78 | 2.6 | 7.0 | 0.00 | 0.00 | 0.00 | 62 | 1008.3 |
| 20260505151700 | 69 | 289 | 2.6 | 7.0 | 0.00 | 0.00 | 0.00 | 63 | 1008.4 |
| 20260505151459 | 69 | 294 | 2.6 | 7.0 | 0.00 | 0.00 | 0.00 | 63 | 1008.4 |
| 20260505151300 | 69 | 135 | 2.6 | 7.0 | 0.00 | 0.00 | 0.00 | 63 | 1008.4 |
| 20260505151100 | 69 | 197 | 2.6 | 5.2 | 0.00 | 0.00 | 0.00 | 63 | 1008.4 |
| 20260505150900 | 70 | 173 | 2.6 | 5.2 | 0.00 | 0.00 | 0.00 | 63 | 1008.4 |
| 20260505150700 | 70 | 137 | 2.6 | 5.2 | 0.00 | 0.00 | 0.00 | 63 | 1008.5 |
| 20260505150500 | 70 | 289 | 2.6 | 5.2 | 0.00 | 0.00 | 0.00 | 62 | 1008.5 |
| 20260505150300 | 70 | 181 | 2.6 | 5.2 | 0.00 | 0.00 | 0.00 | 62 | 1008.5 |